Location: Meriden
(44.0740°N, 93.3870°W)
Time: 14:18:00
(UTC-06:00)

Amateur Radio Satellites - All Passes

Search period start: 04 March 2015 13:48
Search period end: 05 March 2015 13:48
Location: Meriden, 44.0740°N, 93.3870°W

Satellite Date Start Highest point End Downlink Frequencies (MHz)
Time Altitude Azimuth
BEESAT 04 Mar 13:54:38 13:59:28 75° 103° (ESE) 14:04:17 436.000
AO-7 04 Mar 14:20:55 14:28:36 44° 61° (ENE) 14:36:22 29.400- 29.500
ITUPSAT 1 04 Mar 14:23:22 14:28:09 60° 287° (WNW) 14:32:53 437.325
YUBILEINY 04 Mar 14:26:39 14:31:57 19° 78° (ENE) 14:37:45 435.215
HORYU 2 04 Mar 14:38:07 14:42:29 64° 74° (ENE) 14:46:53 437.375
Gurwin Techsat 1B 04 Mar 14:40:30 14:45:26 38° 264° (W) 14:50:22 435.225
ITAMSAT 1 04 Mar 14:58:01 15:01:54 20° 269° (W) 15:05:39 435.822/435.867
JAS-2 04 Mar 15:06:55 15:12:07 41° 66° (ENE) 15:18:00 435.910
KKS-1 04 Mar 15:11:04 15:15:32 88° 288° (WNW) 15:19:58 437.445
STARS 04 Mar 15:12:49 15:17:11 63° 101° (E) 15:21:31 437.465
ISS 04 Mar 15:17:59 15:20:49 28° 221° (SW) 15:23:38 145.825
SWISSCUBE 04 Mar 15:25:35 15:28:36 16° 298° (WNW) 15:31:26 437.505
BEESAT 04 Mar 15:34:05 15:36:48 15° 299° (WNW) 15:39:19 436.000
AO-7 04 Mar 16:13:25 16:21:24 47° 260° (W) 16:29:21 29.400- 29.500
HORYU 2 04 Mar 16:17:30 16:19:40 13° 272° (W) 16:21:38 437.375
YUBILEINY 04 Mar 16:18:54 16:27:39 88° 98° (E) 16:36:31 435.215
BEESAT 3 04 Mar 16:26:49 16:30:28 33° 117° (ESE) 16:34:14 437.485
MOZHAYETS 4 04 Mar 16:37:05 16:41:27 40° 97° (E) 16:45:50
VERMONT LUNAR 04 Mar 16:40:36 16:43:10 19° 156° (SSE) 16:45:46 437.305
KKS-1 04 Mar 16:50:31 16:51:33 11° 300° (WNW) 16:52:21 437.445
STARS 04 Mar 16:50:44 16:53:13 15° 298° (WNW) 16:55:32 437.465
JAS-2 04 Mar 16:52:27 16:57:26 31° 268° (W) 17:02:51 435.910
M-CUBED/EXP-1 PRIME 04 Mar 16:54:15 16:58:31 64° 107° (ESE) 17:03:07 437.505
BEESAT 2 04 Mar 16:54:17 16:58:18 55° 120° (ESE) 17:02:24 435.950
AUBIESAT-1 04 Mar 16:54:26 16:58:41 58° 106° (ESE) 17:03:14 437.475
AIST 1 04 Mar 16:54:44 16:57:16 15° 66° (ENE) 16:59:58
Cubesat XI-IV 04 Mar 16:59:46 17:04:44 41° 69° (ENE) 17:09:48 437.490
PHONESAT 2.4 04 Mar 16:59:49 17:02:02 16° 153° (SSE) 17:04:18 2401.200-2431.200
AIST 2 04 Mar 17:03:56 17:07:31 27° 115° (ESE) 17:11:12 435.215
O/OREOS (USA 219) 04 Mar 17:06:04 17:07:43 12° 45° (NE) 17:09:34 437.305
CUTE-I 04 Mar 17:07:57 17:13:04 48° 70° (ENE) 17:18:15 437.470
STRAND 1 04 Mar 18:02:41 18:05:43 16° 89° (E) 18:08:56 437.568
BEESAT 3 04 Mar 18:04:57 18:08:36 29° 315° (NW) 18:12:15 437.485
MOZHAYETS 4 04 Mar 18:14:47 18:18:29 23° 294° (WNW) 18:22:06
VERMONT LUNAR 04 Mar 18:17:18 18:20:38 42° 172° (S) 18:23:57 437.305
YUBILEINY 04 Mar 18:19:21 18:25:55 22° 301° (WNW) 18:32:12 435.215
GOMX 1 04 Mar 18:28:19 18:29:32 11° 60° (ENE) 18:31:02 467.674
AUBIESAT-1 04 Mar 18:30:22 18:33:15 17° 300° (WNW) 18:36:07 437.475
M-CUBED/EXP-1 PRIME 04 Mar 18:30:27 18:33:07 16° 301° (WNW) 18:35:44 437.505
AIST 1 04 Mar 18:31:04 18:35:23 53° 266° (W) 18:39:39
PRISM 04 Mar 18:31:46 18:35:52 47° 99° (E) 18:39:58 437.425
BRITE-PL 04 Mar 18:31:58 18:35:36 19° 64° (ENE) 18:39:17 437.365/2234.400
BEESAT 2 04 Mar 18:33:38 18:36:49 20° 320° (NW) 18:39:58 435.950
PHONESAT 2.4 04 Mar 18:36:33 18:39:58 38° 168° (SSE) 18:43:23 2401.200-2431.200
Cubesat XI-IV 04 Mar 18:40:23 18:45:00 28° 266° (W) 18:49:34 437.490
CUBESAT XI-V 04 Mar 18:41:57 18:46:39 62° 101° (E) 18:51:17 437.345
AIST 2 04 Mar 18:42:04 18:46:01 36° 313° (NW) 18:50:02 435.215
O/OREOS (USA 219) 04 Mar 18:43:24 18:48:02 81° 66° (ENE) 18:52:36 437.305
CUTE-I 04 Mar 18:49:04 18:53:26 24° 268° (W) 18:57:42 437.470
DOVE 4 04 Mar 18:52:06 18:53:57 12° 62° (ENE) 18:56:01 437.250
PCSat 04 Mar 18:54:17 18:56:14 12° 104° (ESE) 18:58:30 145.827
SEEDS 04 Mar 18:55:55 18:57:05 11° 62° (ENE) 18:58:28 437.485
CANX-2 04 Mar 19:01:07 19:03:43 17° 65° (ENE) 19:06:27 2200.000
HO-68 04 Mar 19:05:07 19:11:30 38° 62° (ENE) 19:18:01 435.675
CUTE 1.7 + AOD 2 04 Mar 19:18:38 19:21:53 23° 67° (ENE) 19:25:13 437.475
STRAND 1 04 Mar 19:40:21 19:45:29 67° 287° (WNW) 19:50:34 437.568
AAUSAT CUBESAT 2 04 Mar 19:53:37 19:57:16 31° 70° (ENE) 20:00:59 437.432
VERMONT LUNAR 04 Mar 19:54:57 19:58:15 41° 189° (S) 20:01:33 437.305
COMPASS 1 04 Mar 19:57:45 20:01:38 40° 71° (ENE) 20:05:33 437.405
GOMX 1 04 Mar 20:01:41 20:07:01 74° 75° (ENE) 20:12:04 467.674
Oscar 11 04 Mar 20:03:01 20:06:13 21° 66° (ENE) 20:09:32 145.826/435.025
BRITE-PL 04 Mar 20:08:03 20:13:40 71° 258° (WSW) 20:19:02 437.365/2234.400
PRISM 04 Mar 20:08:10 20:11:04 18° 296° (WNW) 20:13:50 437.425
PHONESAT 2.4 04 Mar 20:14:38 20:18:08 46° 185° (S) 20:21:38 2401.200-2431.200
CINEMA 3 04 Mar 20:18:05 20:22:29 41° 72° (ENE) 20:26:45 145.822/145.860
CUBESAT XI-V 04 Mar 20:20:39 20:23:39 17° 297° (WNW) 20:26:29 437.345
CUBEBUG 2 04 Mar 20:24:21 20:28:03 27° 68° (ENE) 20:31:43 437.445
O/OREOS (USA 219) 04 Mar 20:25:39 20:26:50 11° 262° (W) 20:27:45 437.305
DOVE 4 04 Mar 20:26:03 20:31:10 88° 77° (ENE) 20:36:02 437.250
SEEDS 04 Mar 20:28:11 20:32:22 77° 258° (WSW) 20:36:35 437.485
DX 1 04 Mar 20:31:04 20:34:25 22° 66° (ENE) 20:37:52 434.975-435.025
PCSat 04 Mar 20:33:31 20:38:57 86° 116° (ESE) 20:44:25 145.827
GONETS M04 04 Mar 20:33:57 20:40:44 28° 83° (E) 20:47:48
CANX-2 04 Mar 20:35:14 20:39:19 49° 261° (W) 20:43:26 2200.000
HUMSAT D 04 Mar 20:40:54 20:43:05 14° 64° (ENE) 20:45:27 437.325/437.525
AISAT 04 Mar 20:45:59 20:48:18 14° 62° (ENE) 20:50:49 437.250
DELFI C3 04 Mar 20:47:35 20:51:26 46° 73° (ENE) 20:55:21 145.870
FUNcube-1 04 Mar 20:51:43 20:55:36 34° 70° (ENE) 20:59:28 145.935
HO-68 04 Mar 20:52:18 20:59:09 47° 261° (W) 21:05:59 435.675
ZACube-1 04 Mar 20:53:45 20:57:42 36° 71° (ENE) 21:01:38 437.345
CUTE 1.7 + AOD 2 04 Mar 20:53:49 20:57:40 34° 264° (W) 21:01:31 437.475
VELOX 1 04 Mar 20:53:55 20:56:40 17° 63° (ENE) 20:59:33 145.980
UKube-1 04 Mar 20:56:56 21:00:56 37° 70° (ENE) 21:04:59 .
UWE-3 04 Mar 21:17:39 21:22:04 80° 76° (ENE) 21:26:23 435.000/436.395/437.385
ESTCUBE 1 04 Mar 21:18:28 21:20:55 15° 62° (ENE) 21:23:33 437.505/2401.250
AAUSAT CUBESAT 2 04 Mar 21:29:40 21:33:00 23° 267° (W) 21:36:17 437.432
VERMONT LUNAR 04 Mar 21:33:15 21:35:42 18° 205° (SSW) 21:38:05 437.305
COMPASS 1 04 Mar 21:34:36 21:37:33 18° 269° (W) 21:40:25 437.405
Oscar 11 04 Mar 21:38:11 21:42:13 38° 263° (W) 21:46:15 145.826/435.025
GOMX 1 04 Mar 21:42:35 21:45:40 15° 272° (W) 21:48:25 467.674
RS-15 04 Mar 21:43:32 21:51:59 29° 105° (ESE) 22:00:53 29.354- 29.394
50 SAT 04 Mar 21:47:02 21:50:52 49° 73° (ENE) 21:54:43 437.505
TIGRISAT 04 Mar 21:49:10 21:51:21 14° 89° (E) 21:53:44 435.000
PHONESAT 2.4 04 Mar 21:53:13 21:56:12 24° 201° (SSW) 21:59:09 2401.200-2431.200
CINEMA 3 04 Mar 21:56:10 21:59:52 22° 267° (W) 22:03:22 145.822/145.860
CUBEBUG 2 04 Mar 22:00:42 22:04:41 31° 264° (W) 22:08:33 437.445
ANTELSAT 04 Mar 22:03:16 22:06:28 21° 92° (E) 22:09:48 437.575/2403.000
DX 1 04 Mar 22:06:21 22:10:28 38° 262° (W) 22:14:36 434.975-435.025
DOVE 4 04 Mar 22:07:59 22:09:36 11° 274° (W) 22:10:54 437.250
HUMSAT D 04 Mar 22:14:23 22:18:30 56° 260° (W) 22:22:37 437.325/437.525
CUBEBUG 1 04 Mar 22:15:29 22:19:44 47° 72° (ENE) 22:24:03 437.445
NANOSAT C BR1 04 Mar 22:19:02 22:21:38 16° 90° (E) 22:24:22 145.865
PCSat 04 Mar 22:19:09 22:23:08 20° 321° (NW) 22:27:00 145.827
AISAT 04 Mar 22:19:57 22:24:27 68° 258° (WSW) 22:28:57 437.250
DELFI C3 04 Mar 22:24:33 22:26:58 15° 270° (W) 22:29:15 145.870
GONETS M04 04 Mar 22:28:19 22:36:57 67° 282° (WNW) 22:45:38
VELOX 1 04 Mar 22:28:26 22:32:51 57° 260° (W) 22:37:18 145.980
FUNcube-1 04 Mar 22:28:33 22:32:03 23° 267° (W) 22:35:25 145.935
ZACube-1 04 Mar 22:30:49 22:34:13 22° 267° (W) 22:37:29 437.345
UKube-1 04 Mar 22:33:50 22:37:15 22° 267° (W) 22:40:35 .
TISAT 1 04 Mar 22:35:16 22:38:13 19° 65° (ENE) 22:41:15 437.305
SPROUT 04 Mar 22:39:23 22:42:42 22° 67° (ENE) 22:46:08 437.525
BUGSAT 1 04 Mar 22:49:51 22:53:18 25° 94° (E) 22:56:45 437.445
DANDE 04 Mar 22:51:21 22:55:43 21° 94° (E) 22:59:32 436.750
QB50P1 04 Mar 22:51:33 22:55:28 36° 97° (E) 22:59:22 145.935-145.965
ESTCUBE 1 04 Mar 22:52:50 22:57:20 66° 259° (WSW) 23:01:52 437.505/2401.250
QB50P2 04 Mar 22:56:11 23:00:12 41° 98° (E) 23:04:13 145.880/145.840
UNISAT 6 04 Mar 23:00:18 23:04:37 83° 101° (E) 23:08:59 437.425
CUSAT 1 04 Mar 23:06:28 23:11:33 31° 97° (E) 23:15:37 437.405
DUCHIFAT 1 04 Mar 23:09:03 23:13:13 56° 100° (E) 23:17:20 145.980
SWISSCUBE 04 Mar 23:20:14 23:21:57 12° 59° (ENE) 23:23:54 437.505
50 SAT 04 Mar 23:24:04 23:26:13 14° 270° (W) 23:28:12 437.505
TIGRISAT 04 Mar 23:24:20 23:28:32 56° 287° (WNW) 23:32:46 435.000
BEESAT 04 Mar 23:27:57 23:30:04 13° 60° (ENE) 23:32:26 436.000
POPSAT HIP 1 04 Mar 23:31:22 23:35:37 82° 286° (WNW) 23:39:49 437.405
POLYITAN 1 04 Mar 23:32:06 23:36:21 79° 284° (WNW) 23:40:32 437.675
BEESAT 2 04 Mar 23:36:34 23:37:33 11° 30° (NNE) 23:38:40 435.950
ANTELSAT 04 Mar 23:39:27 23:43:27 38° 289° (WNW) 23:47:28 437.575/2403.000
RS-15 04 Mar 23:52:20 00:03:16 81° 307° (NW) 00:14:26 29.354- 29.394
CUBEBUG 1 04 Mar 23:53:18 23:56:25 18° 269° (W) 23:59:25 437.445
NANOSAT C BR1 04 Mar 23:53:45 23:57:49 46° 288° (WNW) 00:01:50 145.865
ITUPSAT 1 04 Mar 23:55:05 23:58:45 23° 65° (ENE) 00:02:33 437.325
TISAT 1 05 Mar 00:09:38 00:13:45 44° 261° (W) 00:17:52 437.305
SPROUT 05 Mar 00:14:36 00:18:38 37° 263° (W) 00:22:40 437.525
BUGSAT 1 05 Mar 00:25:11 00:28:49 28° 292° (WNW) 00:32:19 437.445
QB50P1 05 Mar 00:27:54 00:31:10 22° 294° (WNW) 00:34:20 145.935-145.965
GONETS M04 05 Mar 00:31:14 00:35:59 15° 308° (NW) 00:40:14
DANDE 05 Mar 00:32:43 00:39:02 55° 283° (WNW) 00:43:44 436.750
QB50P2 05 Mar 00:32:48 00:35:52 19° 295° (WNW) 00:38:49 145.880/145.840
KKS-1 05 Mar 00:37:19 00:38:56 12° 61° (ENE) 00:40:45 437.445
UNISAT 6 05 Mar 00:39:37 00:40:53 11° 299° (WNW) 00:41:55 437.425
BEESAT 3 05 Mar 00:44:24 00:48:14 35° 47° (NE) 00:52:02 437.485
DUCHIFAT 1 05 Mar 00:46:11 00:48:40 15° 296° (WNW) 00:50:59 145.980
SO-50 05 Mar 00:47:55 00:52:08 37° 117° (ESE) 00:56:32 436.795
CUSAT 1 05 Mar 00:49:21 00:54:24 30° 285° (WNW) 00:58:17 437.405
SWISSCUBE 05 Mar 00:54:23 00:59:10 89° 72° (ENE) 01:04:00 437.505
BEESAT 05 Mar 01:02:33 01:07:20 83° 255° (WSW) 01:12:10 436.000
BEESAT 2 05 Mar 01:12:36 01:16:43 55° 52° (NE) 01:20:45 435.950
AIST 2 05 Mar 01:23:59 01:27:50 31° 45° (NE) 01:31:38 435.215
Oscar 19 05 Mar 01:24:27 01:29:21 44° 98° (E) 01:34:16 437.125/150
ITAMSAT 1 05 Mar 01:29:26 01:32:43 17° 89° (E) 01:36:12 435.822/435.867
ITUPSAT 1 05 Mar 01:31:51 01:36:25 44° 262° (W) 01:41:02 437.325
RS-15 05 Mar 02:08:01 02:17:40 33° 336° (NNW) 02:27:27 29.354- 29.394
KKS-1 05 Mar 02:10:31 02:15:01 82° 258° (WSW) 02:19:31 437.445
STARS 05 Mar 02:11:06 02:15:29 67° 74° (ENE) 02:19:54 437.465
BEESAT 3 05 Mar 02:22:44 02:26:14 26° 245° (WSW) 02:29:36 437.485
YUBILEINY 05 Mar 02:27:24 02:35:53 48° 73° (ENE) 02:44:22 435.215
SO-50 05 Mar 02:28:31 02:32:44 32° 316° (NW) 02:37:05 436.795
HORYU 2 05 Mar 02:30:33 02:31:38 11° 87° (E) 02:32:59 437.375
SWISSCUBE 05 Mar 02:37:01 02:37:50 10° 275° (W) 02:38:20 437.505
BEESAT 2 05 Mar 02:51:52 02:54:30 16° 248° (WSW) 02:56:59 435.950
Gurwin Techsat 1B 05 Mar 02:54:36 02:59:57 78° 102° (ESE) 03:05:17 435.225
AIST 2 05 Mar 03:02:37 03:06:26 31° 244° (WSW) 03:10:08 435.215
Oscar 19 05 Mar 03:04:19 03:08:30 25° 295° (WNW) 03:12:35 437.125/150
ITAMSAT 1 05 Mar 03:07:35 03:12:46 64° 288° (WNW) 03:17:54 435.822/435.867
PCSat 05 Mar 03:37:30 03:41:19 19° 38° (NE) 03:45:14 145.827
MOZHAYETS 4 05 Mar 03:40:29 03:44:48 44° 72° (ENE) 03:49:11
AUBIESAT-1 05 Mar 03:45:18 03:48:38 84° 253° (WSW) 03:52:10 437.475
M-CUBED/EXP-1 PRIME 05 Mar 03:45:38 03:48:56 72° 253° (WSW) 03:52:27 437.505
STARS 05 Mar 03:50:29 03:52:30 12° 272° (W) 03:54:18 437.465
JAS-2 05 Mar 03:57:42 04:04:39 39° 94° (E) 04:11:57 435.910
HORYU 2 05 Mar 04:04:28 04:08:56 76° 285° (WNW) 04:13:23 437.375
AO-7 05 Mar 04:12:41 04:20:49 56° 102° (ESE) 04:28:56 29.400- 29.500
YUBILEINY 05 Mar 04:24:32 04:32:37 41° 273° (W) 04:40:32 435.215
RS-15 05 Mar 04:25:34 04:34:30 27° 10° (N) 04:43:49 29.354- 29.394
Gurwin Techsat 1B 05 Mar 04:36:03 04:39:22 16° 300° (WNW) 04:42:30 435.225
Cubesat XI-IV 05 Mar 05:17:01 05:19:41 14° 87° (E) 05:22:37 437.490
MOZHAYETS 4 05 Mar 05:18:54 05:22:18 20° 269° (W) 05:25:36
STRAND 1 05 Mar 05:19:35 05:23:52 28° 66° (ENE) 05:28:17 437.568
PCSat 05 Mar 05:20:04 05:25:32 88° 245° (WSW) 05:30:58 145.827
PRISM 05 Mar 05:23:36 05:27:30 42° 71° (ENE) 05:31:30 437.425
CUTE-I 05 Mar 05:24:44 05:27:59 17° 88° (E) 05:31:27 437.470
JAS-2 05 Mar 05:42:39 05:49:47 50° 292° (WNW) 05:57:14 435.910
CUBESAT XI-V 05 Mar 05:46:36 05:51:16 71° 75° (ENE) 05:55:59 437.345
AO-7 05 Mar 06:05:57 06:13:23 37° 301° (WNW) 06:20:40 29.400- 29.500
RS-15 05 Mar 06:39:28 06:50:23 51° 41° (NE) 07:01:52 29.354- 29.394
GONETS M04 05 Mar 06:41:52 06:46:15 15° 53° (NE) 06:51:09
Cubesat XI-IV 05 Mar 06:55:07 07:00:32 79° 287° (WNW) 07:05:53 437.490
STRAND 1 05 Mar 06:58:06 07:02:56 40° 263° (W) 07:07:47 437.568
PRISM 05 Mar 07:00:23 07:03:16 18° 269° (W) 07:06:03 437.425
AIST 1 05 Mar 07:01:39 07:06:01 84° 100° (E) 07:10:27
CUTE-I 05 Mar 07:03:19 07:08:40 68° 288° (WNW) 07:13:59 437.470
PCSat 05 Mar 07:05:49 07:08:15 13° 256° (WSW) 07:10:22 145.827
CUBESAT XI-V 05 Mar 07:27:02 07:29:20 13° 273° (W) 07:31:23 437.345
JAS-2 05 Mar 07:31:05 07:33:26 11° 310° (NW) 07:35:22 435.910
SO-50 05 Mar 07:38:25 07:40:46 13° 28° (NNE) 07:43:14 436.795
ISS 05 Mar 07:57:25 08:00:22 34° 141° (SE) 08:03:21 145.825
GOMX 1 05 Mar 08:03:56 08:06:36 16° 89° (E) 08:09:21 467.674
SEEDS 05 Mar 08:12:24 08:14:58 16° 90° (E) 08:17:43 437.485
BRITE-PL 05 Mar 08:12:38 08:16:38 31° 94° (E) 08:20:26 437.365/2234.400
HO-68 05 Mar 08:18:12 08:24:29 33° 94° (E) 08:30:53 435.675
CANX-2 05 Mar 08:19:29 08:22:59 25° 94° (E) 08:26:33 2200.000
DOVE 4 05 Mar 08:25:10 08:28:06 19° 91° (E) 08:31:06 437.250
GONETS M04 05 Mar 08:36:32 08:45:16 68° 78° (ENE) 08:54:01
CUTE 1.7 + AOD 2 05 Mar 08:37:23 08:41:17 35° 97° (E) 08:45:13 437.475
Cubesat XI-IV 05 Mar 08:37:31 08:39:51 13° 303° (WNW) 08:41:56 437.490
AIST 1 05 Mar 08:43:57 08:44:28 10° 298° (WNW) 08:44:43
CUTE-I 05 Mar 08:46:29 08:47:53 11° 305° (NW) 08:48:59 437.470
TIGRISAT 05 Mar 08:49:48 08:52:25 16° 64° (ENE) 08:55:10 435.000
RS-15 05 Mar 08:52:04 09:03:12 58° 245° (WSW) 09:14:43 29.354- 29.394
POPSAT HIP 1 05 Mar 08:54:01 08:54:26 10° 61° (ENE) 08:55:04 437.405
POLYITAN 1 05 Mar 08:54:33 08:55:23 11° 61° (ENE) 08:56:25 437.675
O/OREOS (USA 219) 05 Mar 08:56:49 09:01:22 72° 111° (ESE) 09:05:58 437.305
ANTELSAT 05 Mar 09:04:09 09:07:32 23° 67° (ENE) 09:10:58 437.575/2403.000
UWE-3 05 Mar 09:07:52 09:09:47 13° 89° (E) 09:11:55 435.000/436.395/437.385
AAUSAT CUBESAT 2 05 Mar 09:10:24 09:14:29 48° 99° (E) 09:18:35 437.432
NANOSAT C BR1 05 Mar 09:13:38 09:16:16 17° 64° (ENE) 09:19:02 145.865
COMPASS 1 05 Mar 09:15:13 09:19:25 64° 100° (E) 09:23:37 437.405
SO-50 05 Mar 09:17:36 09:22:27 54° 50° (NE) 09:27:18 436.795
Oscar 11 05 Mar 09:23:56 09:27:51 33° 96° (E) 09:31:48 145.826/435.025
ISS 05 Mar 09:33:41 09:36:44 38° 338° (NNW) 09:39:47 145.825
GOMX 1 05 Mar 09:40:58 09:45:09 45° 288° (WNW) 09:49:07 467.674
BUGSAT 1 05 Mar 09:41:35 09:44:58 24° 67° (ENE) 09:48:26 437.445
QB50P1 05 Mar 09:45:50 09:49:41 34° 70° (ENE) 09:53:36 145.935-145.965
SEEDS 05 Mar 09:47:02 09:51:08 47° 287° (WNW) 09:55:12 437.485
CINEMA 3 05 Mar 09:48:30 09:52:41 81° 102° (ESE) 09:56:50 145.822/145.860
CUBEBUG 2 05 Mar 09:49:53 09:53:53 45° 99° (E) 09:57:55 437.445
QB50P2 05 Mar 09:50:36 09:54:34 39° 71° (ENE) 09:58:35 145.880/145.840
BRITE-PL 05 Mar 09:51:21 09:55:06 25° 294° (WNW) 09:58:35 437.365/2234.400
DX 1 05 Mar 09:53:17 09:57:10 31° 96° (E) 10:01:03 434.975-435.025
CANX-2 05 Mar 09:55:11 09:58:58 31° 290° (WNW) 10:02:42 2200.000
HUMSAT D 05 Mar 09:57:54 10:00:55 20° 92° (E) 10:04:02 437.325/437.525
UNISAT 6 05 Mar 10:00:46 10:05:09 88° 78° (ENE) 10:09:29 437.425
DELFI C3 05 Mar 10:00:57 10:05:02 68° 101° (E) 10:09:07 145.870
DOVE 4 05 Mar 10:02:11 10:06:09 38° 289° (WNW) 10:09:59 437.250
DUCHIFAT 1 05 Mar 10:02:53 10:07:02 51° 73° (ENE) 10:11:12 145.980
HO-68 05 Mar 10:05:34 10:12:32 53° 293° (WNW) 10:19:25 435.675
AISAT 05 Mar 10:10:17 10:13:36 21° 92° (E) 10:16:58 437.250
CUTE 1.7 + AOD 2 05 Mar 10:13:41 10:17:03 23° 293° (WNW) 10:20:21 437.475
FUNcube-1 05 Mar 10:14:29 10:18:35 57° 100° (E) 10:22:43 145.935
ZACube-1 05 Mar 10:16:49 10:20:56 62° 100° (E) 10:25:05 437.345
VELOX 1 05 Mar 10:18:11 10:21:47 24° 94° (E) 10:25:25 145.980
UKube-1 05 Mar 10:18:51 10:23:08 55° 101° (E) 10:27:24 .
TIGRISAT 05 Mar 10:24:35 10:28:52 53° 260° (W) 10:33:05 435.000
POPSAT HIP 1 05 Mar 10:25:25 10:29:43 89° 220° (SW) 10:34:02 437.405
POLYITAN 1 05 Mar 10:26:25 10:30:43 86° 254° (WSW) 10:35:02 437.675
GONETS M04 05 Mar 10:34:22 10:41:30 28° 277° (W) 10:48:23
O/OREOS (USA 219) 05 Mar 10:38:33 10:41:24 16° 312° (NW) 10:44:07 437.305
ANTELSAT 05 Mar 10:40:10 10:44:12 35° 263° (W) 10:48:10 437.575/2403.000
UWE-3 05 Mar 10:42:41 10:46:46 55° 286° (WNW) 10:50:51 435.000/436.395/437.385
ESTCUBE 1 05 Mar 10:44:44 10:48:22 24° 93° (E) 10:52:04 437.505/2401.250
AAUSAT CUBESAT 2 05 Mar 10:47:04 10:49:48 17° 295° (WNW) 10:52:25 437.432
NANOSAT C BR1 05 Mar 10:47:36 10:51:48 51° 260° (W) 10:55:59 145.865
COMPASS 1 05 Mar 10:52:33 10:54:40 13° 297° (WNW) 10:56:38 437.405
50 SAT 05 Mar 10:58:47 11:02:44 67° 101° (E) 11:06:41 437.505
SO-50 05 Mar 10:58:51 11:02:44 23° 247° (WSW) 11:06:29 436.795
Oscar 11 05 Mar 11:00:22 11:03:56 24° 293° (WNW) 11:07:24 145.826/435.025
Oscar 19 05 Mar 11:07:55 11:09:14 11° 57° (ENE) 11:10:49 437.125/150
RS-15 05 Mar 11:09:36 11:13:35 12° 264° (W) 11:16:23 29.354- 29.394
ISS 05 Mar 11:11:11 11:13:43 21° 358° (N) 11:16:14 145.825
DANDE 05 Mar 11:13:50 11:16:22 42° 263° (W) 11:18:54 436.750
BUGSAT 1 05 Mar 11:16:25 11:20:19 33° 264° (W) 11:24:13 437.445
QB50P1 05 Mar 11:22:14 11:25:41 23° 267° (W) 11:29:03 145.935-145.965
CUSAT 1 05 Mar 11:26:35 11:28:32 19° 265° (W) 11:30:30 437.405
QB50P2 05 Mar 11:27:27 11:30:40 20° 268° (W) 11:33:48 145.880/145.840
CUBEBUG 2 05 Mar 11:27:34 11:30:19 17° 295° (WNW) 11:32:57 437.445
CINEMA 3 05 Mar 11:28:38 11:29:21 10° 299° (WNW) 11:29:51 145.822/145.860
DX 1 05 Mar 11:29:39 11:33:21 26° 293° (WNW) 11:36:57 434.975-435.025
HUMSAT D 05 Mar 11:33:05 11:36:51 35° 289° (WNW) 11:40:37 437.325/437.525
DELFI C3 05 Mar 11:38:02 11:39:46 12° 297° (WNW) 11:41:19 145.870
CUBEBUG 1 05 Mar 11:39:08 11:43:34 78° 102° (ESE) 11:47:56 437.445
DUCHIFAT 1 05 Mar 11:40:36 11:43:13 15° 270° (W) 11:45:42 145.980
AISAT 05 Mar 11:46:13 11:50:25 40° 290° (WNW) 11:54:32 437.250
FUNcube-1 05 Mar 11:52:16 11:54:33 14° 296° (WNW) 11:56:40 145.935
TISAT 1 05 Mar 11:53:19 11:56:47 25° 94° (E) 12:00:19 437.305
VELOX 1 05 Mar 11:54:24 11:58:28 34° 291° (WNW) 12:02:27 145.980
ZACube-1 05 Mar 11:54:50 11:56:54 13° 297° (WNW) 11:58:48 437.345
UKube-1 05 Mar 11:56:11 11:58:55 16° 297° (WNW) 12:01:29 .
HO-68 05 Mar 11:56:19 11:58:49 12° 313° (NW) 12:00:57 435.675
SPROUT 05 Mar 11:59:48 12:03:42 33° 96° (E) 12:07:35 437.525
ESTCUBE 1 05 Mar 12:21:10 12:25:23 37° 290° (WNW) 12:29:33 437.505/2401.250
50 SAT 05 Mar 12:35:50 12:37:16 11° 297° (WNW) 12:38:30 437.505
Gurwin Techsat 1B 05 Mar 12:39:16 12:43:02 21° 62° (ENE) 12:46:57 435.225
Oscar 19 05 Mar 12:42:41 12:47:48 75° 75° (ENE) 12:52:58 437.125/150
ISS 05 Mar 12:47:50 12:50:45 30° 18° (NNE) 12:53:40 145.825
ITAMSAT 1 05 Mar 12:48:26 12:52:57 31° 66° (ENE) 12:57:34 435.822/435.867
SWISSCUBE 05 Mar 12:54:09 12:57:43 21° 92° (E) 13:01:23 437.505
BEESAT 05 Mar 13:02:04 13:05:49 23° 93° (E) 13:09:39 436.000
CUBEBUG 1 05 Mar 13:17:32 13:19:23 12° 299° (WNW) 13:21:03 437.445
AO-7 05 Mar 13:23:46 13:29:31 22° 50° (NE) 13:35:32 29.400- 29.500
TISAT 1 05 Mar 13:28:54 13:32:38 30° 291° (WNW) 13:36:17 437.305
HORYU 2 05 Mar 13:30:16 13:32:26 14° 62° (ENE) 13:34:46 437.375
ITUPSAT 1 05 Mar 13:30:51 13:35:26 42° 98° (E) 13:40:01 437.325
SPROUT 05 Mar 13:36:11 13:39:40 24° 293° (WNW) 13:43:04 437.525
